Hourly Weather Rudnevo

Today, 16 April, Friday

Time Temperature Precipitation Wind Pressure Humidity
00:00 +3°C° 0 mm 5 mps 745 mmHg 80%
01:00 +3°C° 0 mm 5 mps 745 mmHg 82%
02:00 +2°C° 0 mm 5 mps 745 mmHg 84%
03:00 +2°C° 0 mm 5 mps 745 mmHg 85%
04:00 +2°C° 0 mm 5 mps 745 mmHg 85%
05:00 +1°C° 0 mm 5 mps 745 mmHg 86%
06:00 +2°C° 0 mm 5 mps 745 mmHg 84%
07:00 +3°C° 0 mm 5 mps 745 mmHg 82%
08:00 +5°C° 0 mm 5 mps 746 mmHg 79%
09:00 +6°C° 0 mm 5 mps 746 mmHg 76%
10:00 +7°C° 0 mm 5 mps 746 mmHg 73%
11:00 +8°C° 0 mm 5 mps 746 mmHg 70%
12:00 +9°C° 0 mm 5 mps 746 mmHg 67%
13:00 +10°C° 0 mm 5 mps 746 mmHg 65%
14:00 +12°C° 0 mm 5 mps 746 mmHg 62%
15:00 +10°C° 0 mm 5 mps 746 mmHg 64%
16:00 +10°C° 0 mm 5 mps 746 mmHg 66%
17:00 +9°C° 0 mm 5 mps 746 mmHg 68%
18:00 +8°C° 0 mm 5 mps 746 mmHg 69%
19:00 +7°C° 0 mm 5 mps 746 mmHg 70%
20:00 +6°C° 0 mm 5 mps 747 mmHg 70%
21:00 +6°C° 0 mm 5 mps 747 mmHg 70%
22:00 +6°C° 0 mm 5 mps 747 mmHg 69%
23:00 +5°C° 0 mm 4 mps 747 mmHg 69%

Tomorrow, 17 April, Saturday

Time Temperature Precipitation Wind Pressure Humidity
00:00 +5°C° 0 mm 4 mps 747 mmHg 71%
01:00 +4°C° 0 mm 4 mps 747 mmHg 73%
02:00 +4°C° 0 mm 4 mps 747 mmHg 75%
03:00 +4°C° 0 mm 4 mps 747 mmHg 77%
04:00 +3°C° 0 mm 4 mps 747 mmHg 78%
05:00 +3°C° 0 mm 4 mps 747 mmHg 80%
06:00 +4°C° 0 mm 4 mps 747 mmHg 78%
07:00 +5°C° 0 mm 4 mps 747 mmHg 76%
08:00 +5°C° 0 mm 4 mps 748 mmHg 75%
09:00 +7°C° 0 mm 4 mps 748 mmHg 71%
10:00 +8°C° 0 mm 4 mps 748 mmHg 67%
11:00 +11°C° 0 mm 4 mps 748 mmHg 63%
12:00 +12°C° 0 mm 5 mps 748 mmHg 60%
13:00 +12°C° 0 mm 5 mps 748 mmHg 58%
14:00 +13°C° 0 mm 5 mps 748 mmHg 55%
15:00 +13°C° 0 mm 5 mps 748 mmHg 55%
16:00 +12°C° 0 mm 5 mps 747 mmHg 55%
17:00 +12°C° 0 mm 5 mps 747 mmHg 55%
18:00 +10°C° 0 mm 4 mps 747 mmHg 56%
19:00 +8°C° 0 mm 4 mps 747 mmHg 57%
20:00 +7°C° 0 mm 4 mps 748 mmHg 58%
21:00 +6°C° 0 mm 4 mps 748 mmHg 61%
22:00 +5°C° 0 mm 4 mps 748 mmHg 63%
23:00 +5°C° 0 mm 4 mps 748 mmHg 65%

Day after tomorrow, 18 April, Sunday

Time Temperature Precipitation Wind Pressure Humidity
00:00 +4°C° 0 mm 4 mps 748 mmHg 69%
01:00 +3°C° 0 mm 4 mps 748 mmHg 73%
02:00 +3°C° 0 mm 4 mps 748 mmHg 76%
03:00 +1°C° 0 mm 4 mps 747 mmHg 78%
04:00 +1°C° 0 mm 4 mps 747 mmHg 80%
05:00 +1°C° 0 mm 4 mps 747 mmHg 82%
06:00 +3°C° 0 mm 4 mps 747 mmHg 75%
07:00 +5°C° 0 mm 4 mps 747 mmHg 68%
08:00 +6°C° 0 mm 5 mps 748 mmHg 61%
09:00 +7°C° 0 mm 5 mps 747 mmHg 56%
10:00 +9°C° 0 mm 5 mps 747 mmHg 50%
11:00 +10°C° 0 mm 5 mps 747 mmHg 45%
12:00 +12°C° 0 mm 5 mps 747 mmHg 42%
13:00 +12°C° 0 mm 5 mps 747 mmHg 40%
14:00 +13°C° 0 mm 5 mps 747 mmHg 38%
15:00 +12°C° 0 mm 5 mps 747 mmHg 41%
16:00 +12°C° 0 mm 4 mps 747 mmHg 43%
17:00 +12°C° 0 mm 4 mps 747 mmHg 46%
18:00 +10°C° 0 mm 4 mps 747 mmHg 52%
19:00 +8°C° 0 mm 4 mps 748 mmHg 58%
20:00 +7°C° 0 mm 3 mps 748 mmHg 63%
21:00 +5°C° 0 mm 3 mps 748 mmHg 67%
22:00 +5°C° 0 mm 3 mps 748 mmHg 71%
23:00 +4°C° 0 mm 3 mps 748 mmHg 75%

19 April, Monday

Time Temperature Precipitation Wind Pressure Humidity
00:00 +4°C° 0 mm 3 mps 748 mmHg 78%
01:00 +3°C° 0 mm 3 mps 748 mmHg 81%
02:00 +3°C° 0 mm 3 mps 748 mmHg 84%
03:00 +2°C° 0 mm 3 mps 748 mmHg 87%
04:00 +2°C° 0 mm 3 mps 748 mmHg 89%
05:00 +2°C° 0 mm 3 mps 748 mmHg 92%
06:00 +3°C° 0 mm 3 mps 748 mmHg 86%
07:00 +4°C° 0 mm 4 mps 748 mmHg 80%
08:00 +6°C° 0 mm 4 mps 748 mmHg 74%
09:00 +6°C° 0 mm 4 mps 748 mmHg 72%
10:00 +7°C° 0 mm 4 mps 748 mmHg 70%
11:00 +7°C° 0 mm 4 mps 748 mmHg 68%
12:00 +7°C° 0 mm 4 mps 748 mmHg 70%
13:00 +7°C° 0 mm 4 mps 748 mmHg 72%
14:00 +6°C° 0 mm 4 mps 748 mmHg 74%
15:00 +6°C° 0 mm 4 mps 748 mmHg 76%
16:00 +6°C° 0 mm 4 mps 748 mmHg 77%
17:00 +6°C° 0 mm 4 mps 747 mmHg 78%
18:00 +6°C° 0 mm 4 mps 747 mmHg 80%
19:00 +5°C° 0 mm 4 mps 747 mmHg 81%
20:00 +5°C° 0 mm 4 mps 747 mmHg 82%
21:00 +5°C° 0 mm 4 mps 747 mmHg 82%
22:00 +5°C° 0 mm 4 mps 746 mmHg 81%
23:00 +5°C° 0 mm 4 mps 746 mmHg 81%

20 April, Tuesday

Time Temperature Precipitation Wind Pressure Humidity
00:00 +4°C° 0 mm 4 mps 746 mmHg 81%
01:00 +4°C° 0 mm 4 mps 746 mmHg 81%
02:00 +4°C° 0 mm 4 mps 746 mmHg 81%
03:00 +3°C° 0 mm 4 mps 745 mmHg 80%
04:00 +3°C° 0 mm 4 mps 745 mmHg 80%
05:00 +3°C° 0 mm 4 mps 745 mmHg 80%
06:00 +3°C° 0 mm 4 mps 744 mmHg 76%
07:00 +3°C° 0 mm 5 mps 744 mmHg 72%
08:00 +3°C° 0 mm 5 mps 743 mmHg 69%
09:00 +5°C° 0 mm 5 mps 743 mmHg 69%
10:00 +5°C° 0 mm 5 mps 743 mmHg 69%
11:00 +5°C° 0 mm 5 mps 742 mmHg 70%
12:00 +6°C° 0 mm 5 mps 742 mmHg 69%
13:00 +6°C° 0 mm 5 mps 741 mmHg 68%
14:00 +6°C° 0 mm 5 mps 740 mmHg 67%
15:00 +5°C° 0 mm 5 mps 740 mmHg 74%
16:00 +3°C° 0 mm 5 mps 739 mmHg 82%
17:00 +2°C° 0 mm 6 mps 738 mmHg 89%
18:00 +2°C° 0.5 mm 6 mps 737 mmHg 91%
19:00 +1°C° 0.5 mm 6 mps 736 mmHg 93%
20:00 +1°C° 0.5 mm 6 mps 735 mmHg 95%
21:00 +1°C° 1.5 mm 6 mps 734 mmHg 95%
22:00 +1°C° 1.5 mm 6 mps 733 mmHg 96%
23:00 +1°C° 1.5 mm 5 mps 733 mmHg 96%

21 April, Wednesday

Time Temperature Precipitation Wind Pressure Humidity
00:00 +1°C° 0.3 mm 5 mps 732 mmHg 96%
01:00 +2°C° 0.3 mm 5 mps 732 mmHg 95%
02:00 +3°C° 0.3 mm 4 mps 731 mmHg 95%
03:00 +3°C° 0 mm 4 mps 731 mmHg 96%
04:00 +4°C° 0 mm 4 mps 730 mmHg 96%
05:00 +4°C° 0 mm 4 mps 730 mmHg 97%
06:00 +4°C° 0.1 mm 4 mps 730 mmHg 97%
07:00 +5°C° 0.1 mm 4 mps 729 mmHg 97%
08:00 +5°C° 0.1 mm 4 mps 729 mmHg 97%
09:00 +6°C° 0.7 mm 4 mps 729 mmHg 96%
10:00 +6°C° 0.7 mm 4 mps 728 mmHg 95%
11:00 +6°C° 0.7 mm 4 mps 728 mmHg 93%
12:00 +6°C° 0.4 mm 4 mps 728 mmHg 93%
13:00 +7°C° 0.4 mm 3 mps 728 mmHg 92%
14:00 +7°C° 0.4 mm 3 mps 728 mmHg 92%
15:00 +7°C° 0.2 mm 3 mps 728 mmHg 93%
16:00 +7°C° 0.2 mm 3 mps 728 mmHg 93%
17:00 +7°C° 0.2 mm 3 mps 728 mmHg 94%
18:00 +5°C° 0.4 mm 3 mps 728 mmHg 95%
19:00 +6°C° 0.4 mm 2 mps 728 mmHg 96%
20:00 +6°C° 0.4 mm 2 mps 729 mmHg 97%
21:00 +6°C° 0.6 mm 2 mps 729 mmHg 97%
22:00 +5°C° 0.6 mm 3 mps 729 mmHg 97%
23:00 +5°C° 0.6 mm 3 mps 729 mmHg 97%
Show more